CZ-2C R/B, 40287

Orbit data source: Space-Track

CZ-2C R/B, 40287 is space debris in SSO originally from a launch on Mon, 27 Oct 2014 UTC launched from the Jiuquan Satellite Launch Center, China (JSC). Debris objects in space refer to the collection of defunct objects orbiting the Earth. Examples of debris include non-operational satellites, rocket bodies, and fragments generated from explosions, collisions, or faulty payload assembly.

Loading next visibility...
Identifier
40287, 2014-066B
Orbit
SSO
Country
Flag of CNCN / PRC
Related business
Manufacturer
CALT
Mission
Spacecraft
Bus & Motor
CZ-2 STAGE 2, Unknown motor
Mass
~3,800 kg wet, ~3,800 kg dry
Launch date (UTC)
2014-10-27 (11 years ago)
Launch vehicle
Unknown
Launch site
Jiuquan Satellite Launch Center, China (JSC)
Object type
Payload
Rocket body
Debris
Shape & HBR
Cyl, 4.2 m
Radar Cross Section
26.048 m², Large (>1 m²)

Expand to show TLE details & history
Last TLE update: 16 hours ago

TLE from 16 hours ago
0 CZ-2C R/B
1 40287U 14066B   25306.31600331  .00000738  00000-0  13860-3 0  9990
2 40287  97.7457 334.2091 0007009 302.7034  57.3495 14.67339595589073
Epoch: 2025-11-02T07:35Z
TLE epoch observation values (Epoch: 2025-11-02T07:35:02.685Z)
Latitude
-0.00007°
Longitude
178.61444°
Altitude
669.92 km
Speed
7.523 km/s
True Right ascension
22h 16m 50s
True Declination
0° 00' 00"
Sunlit
Object was in full shadow at epoch
Visualization orbit readout
Latitude
Unknown
Longitude
Unknown
Altitude
Unknown
Speed
Unknown
Apparent Right ascension
Unknown
Apparent Declination
Unknown
Sunlit
N/A
Visualization observer readout
Local Sidereal Time
18:59:29
Azimuth
Unknown
Elevation
Unknown
Doppler factor
Unknown
Orbital elements
Apogee altitude
671.563 km
Perigee altitude
661.687 km
Semi-major axis
7,044.762 km
Eccentricity
0.0007
Inclination
97.7457°
RAAN
334.2091°
Arg. of periapsis
302.7034°
True anomaly
57.41716°
Mean anomaly
57.3495°
Eccentric anomaly
57.38333°
Mean motion
3.67066 °/min
Orbital period
98.08 mins
BSTAR
0.0001386
Loading maneuver chart data...
Computing Atmospheric mass density...
Loading historical data...
Loading historical data...
Loading historical data...
Loading historical data...
Loading historical data...
Loading historical data...
Loading historical data...
Other satellites on launch #66 in the year 2014 (2014-10-27 UTC)

Documentation

Showing up to 5 results
|